Wind_Speed
65 60 64 67 66 63 59 54 52 53 53 52 52 49 45 44 42 43 42 39 43 47 45 46 46 42 40 39 37 36 37 39 38 34 29 24 25 26 27 27 27 26 26 28 26 23 22 22 21 20 19 19 18 18 18 19 19 19 19 20 21 21 21 21 22 23 24 25 25 26 25 24 23 23 22 22 21 21 21 21 22 23 24 24 24 24
75 68 63 63 63 61 58 55 53 53 52 53 54 52 48 46 44 44 43 41 42 44 42 43 45 44 42 40 39 37 38 40 39 35 31 28 26 26 27 27 28 28 28 28 26 24 23 23 22 21 20 19 19 20 20 20 20 20 20 20 22 22 21 22 23 24 25 27 27 27 26 26 24 24 23 23 22 22 21 22 23 24 25 25 25 26
79 74 66 63 62 61 59 56 54 53 53 54 55 55 52 48 46 45 46 42 40 42 41 41 44 44 43 42 39 37 36 37 38 37 34 32 29 27 26 26 28 29 29 28 26 24 24 24 24 22 21 21 21 21 20 20 20 20 21 22 23 23 22 23 24 25 27 29 29 29 28 27 25 24 24 24 24 23 23 24 25 26 27 27 27 26
79 75 69 67 65 63 61 59 57 54 54 56 56 57 55 52 49 47 47 42 38 41 42 40 43 44 42 42 40 37 35 35 37 38 36 34 32 28 26 27 28 28 27 28 27 25 26 26 24 23 23 23 23 22 21 21 21 22 22 23 24 23 23 24 25 26 28 30 30 30 29 28 26 25 25 25 25 25 26 26 26 27 28 28 28 28
75 73 70 69 68 66 63 60 59 56 56 58 58 58 57 54 51 49 48 43 37 39 42 42 43 43 40 39 39 38 38 36 37 39 39 37 34 31 29 28 28 26 26 27 27 26 27 27 26 25 25 25 24 22 22 22 23 24 24 24 24 24 24 25 26 28 29 30 31 31 31 30 28 27 27 27 27 28 28 28 28 28 28 29 29 29
74 72 70 70 69 67 64 62 60 57 57 58 58 58 57 54 52 51 49 44 38 39 42 43 44 42 37 35 36 37 39 39 36 38 40 39 37 35 33 30 29 28 27 27 26 26 26 27 27 27 26 25 24 24 25 25 26 25 25 25 25 25 25 26 27 29 30 31 32 32 32 31 30 29 29 29 30 30 29 29 29 29 29 30 30 30
75 74 71 71 70 67 65 63 60 57 58 59 58 57 57 56 54 53 50 45 41 40 42 44 44 43 36 32 32 34 37 39 38 38 40 40 40 39 38 34 32 31 30 30 29 27 26 27 28 28 27 26 26 26 28 28 27 26 26 27 27 27 26 27 28 29 31 32 33 33 34 33 32 31 31 31 32 32 31 30 30 30 31 31 31 31
76 75 73 72 70 68 66 64 62 60 59 59 58 57 58 57 56 53 51 50 45 41 43 44 43 43 37 30 29 31 33 37 38 38 38 38 38 37 38 37 36 34 33 33 33 31 28 28 29 29 29 29 28 29 29 28 27 28 28 28 28 28 27 28 28 29 31 33 34 34 35 35 34 33 33 34 34 34 33 32 32 32 33 33 33 32
76 75 74 73 71 70 68 64 63 60 58 59 60 59 57 56 55 55 55 54 51 45 44 43 41 43 39 31 29 31 32 33 34 35 37 38 37 34 33 35 35 34 34 35 36 35 33 30 30 30 30 31 31 30 29 28 28 29 29 29 29 29 29 30 30 30 31 34 35 35 36 36 35 35 36 36 36 35 35 35 34 34 35 35 35 34
75 75 73 73 72 70 67 64 63 59 59 60 60 59 56 55 55 57 58 57 55 51 46 42 41 44 42 35 31 31 31 30 28 30 33 35 34 33 32 33 33 33 34 35 36 36 36 33 31 31 31 32 31 30 29 29 29 30 30 30 30 31 32 32 33 32 32 34 35 35 35 36 37 37 38 38 38 37 38 37 36 36 37 37 37 36
73 74 74 72 70 67 64 63 61 59 59 59 58 58 56 55 56 57 58 57 56 54 49 46 44 46 45 37 32 31 30 29 28 28 30 30 30 30 31 32 33 33 35 35 36 36 36 35 33 32 32 32 32 31 31 30 31 31 31 31 32 32 33 33 34 34 34 35 35 35 35 37 37 38 39 40 40 40 40 40 40 39 39 39 39 38
74 76 76 71 67 66 64 61 60 60 60 59 58 58 57 56 56 56 57 57 57 55 52 50 47 48 46 38 32 29 28 29 29 29 29 30 29 28 27 28 29 31 33 35 37 36 36 36 35 33 32 32 32 32 31 31 32 33 34 34 34 34 35 35 35 36 36 36 36 36 37 37 38 39 40 41 42 43 43 42 42 42 41 40 40 39
74 77 76 73 69 68 66 63 62 61 61 61 60 59 58 58 58 58 58 58 58 55 53 53 50 48 47 41 35 31 27 29 30 29 30 31 31 30 27 25 26 27 29 30 32 33 34 35 35 35 34 34 34 33 33 33 34 35 36 37 37 37 37 37 37 37 37 37 37 37 38 39 39 39 40 41 43 44 45 44 44 43 43 42 41 40
72 74 76 75 72 70 68 66 65 65 64 64 63 62 60 61 61 60 60 60 59 56 55 54 51 48 46 43 41 35 29 29 30 29 29 31 33 34 32 30 29 30 29 28 28 29 29 30 32 33 34 36 36 36 36 37 38 38 38 39 39 39 40 40 40 40 39 39 38 38 39 40 40 40 40 41 43 44 45 46 45 45 45 44 43 42
72 74 76 76 75 74 70 65 64 63 61 61 61 62 61 61 60 58 58 58 56 55 54 54 52 49 46 44 43 39 32 29 30 29 29 31 34 35 35 33 31 31 32 31 30 29 29 29 30 31 32 33 35 36 38 39 40 40 41 41 41 41 43 43 43 42 42 41 41 41 41 40 41 41 41 42 43 44 45 46 46 46 46 46 45 44
71 73 72 71 73 74 71 68 67 63 61 60 60 61 61 61 59 57 57 57 56 56 55 55 54 50 47 45 43 41 35 30 30 31 30 32 33 34 35 34 32 31 31 31 30 30 31 31 31 32 32 32 33 34 36 38 39 41 42 43 43 43 44 45 45 45 44 44 43 43 43 42 42 42 41 42 43 44 45 47 47 47 48 48 47 46
69 70 66 65 67 69 69 69 70 67 64 64 64 64 63 61 60 60 60 60 60 60 59 57 55 51 48 46 45 42 36 30 29 31 31 31 32 33 34 34 34 33 32 30 29 29 29 30 30 31 32 33 33 33 33 35 37 39 41 42 43 44 45 46 46 46 46 46 46 46 45 44 44 43 42 42 43 44 46 47 47 48 49 49 49 48
66 66 64 63 65 66 66 68 69 67 65 65 65 64 61 59 59 59 59 60 60 61 60 57 55 53 49 47 46 42 35 30 28 27 29 31 31 32 33 33 33 33 32 31 29 28 28 29 29 30 30 31 32 32 32 33 34 36 38 40 42 44 45 46 47 47 48 48 48 48 48 47 46 46 45 45 45 45 46 47 47 48 49 50 50 50
64 66 65 64 65 65 66 67 68 67 68 67 65 62 60 58 59 59 60 60 60 61 61 58 56 55 51 48 46 41 33 31 29 26 27 30 31 32 32 32 32 32 32 32 30 29 28 28 28 28 29 30 30 31 31 32 32 33 35 36 39 41 43 45 46 47 48 49 49 49 50 50 50 49 49 48 48 48 48 48 49 49 50 51 51 52
64 67 67 65 65 64 64 67 69 70 71 71 68 65 63 60 59 60 60 59 59 60 60 60 58 56 53 49 46 40 34 33 33 29 28 29 30 32 33 33 33 32 32 31 30 29 28 28 27 27 27 28 29 30 31 32 33 33 34 35 36 38 40 42 44 46 47 49 50 51 51 51 52 52 52 51 51 51 50 50 51 51 52 52 53 53
65 69 69 68 67 66 63 65 67 69 71 71 71 71 70 68 66 64 63 61 60 61 62 63 62 58 54 50 45 39 34 33 33 33 31 29 30 31 32 33 34 33 32 31 30 29 28 28 27 26 26 27 28 29 30 32 33 35 35 36 36 37 38 39 41 43 45 47 49 51 52 52 53 54 54 54 53 52 52 53 53 54 54 54 54 55
67 68 69 71 71 68 64 61 61 63 65 66 67 69 70 70 69 67 66 65 63 62 61 62 63 59 53 50 46 39 33 33 34 35 34 31 30 30 30 31 31 32 32 31 30 30 29 28 27 27 27 27 28 29 30 32 33 35 36 37 38 39 39 40 40 41 43 45 48 50 52 53 54 55 56 56 55 54 54 55 55 55 56 56 56 56
67 67 68 70 71 69 65 62 61 61 61 60 62 64 65 66 66 65 65 64 62 60 58 59 62 60 53 50 49 43 36 35 37 37 36 34 31 30 30 30 30 31 32 32 31 31 30 29 28 27 27 27 28 29 30 31 33 34 36 37 38 39 40 41 41 41 42 44 46 49 51 53 55 56 57 57 57 57 56 57 57 57 57 57 57 57
67 70 71 71 70 69 66 63 61 61 61 61 62 63 64 66 65 64 62 61 61 60 58 58 61 61 56 53 53 49 40 36 37 37 37 36 34 33 33 32 32 32 32 32 31 30 30 30 29 29 29 29 29 30 31 32 33 35 36 37 38 39 40 41 41 42 42 44 46 47 49 51 54 56 57 58 58 58 58 58 58 58 58 58 58 59
68 70 72 72 71 71 70 68 66 65 64 62 61 61 63 63 63 63 62 61 64 62 59 59 60 60 59 56 57 54 43 39 39 39 39 39 37 36 36 35 34 33 33 32 31 30 29 30 30 31 31 31 32 32 33 34 35 36 37 38 39 40 41 42 43 43 43 44 45 47 48 50 52 54 56 58 59 60 60 60 59 59 59 58 59 59
69 70 71 72 74 74 73 70 66 64 62 61 60 60 60 61 61 62 62 63 65 63 62 62 61 60 60 60 60 55 46 42 41 39 40 41 39 38 38 38 37 35 34 33 31 31 31 31 31 32 33 34 35 36 36 37 38 38 39 39 40 41 42 43 44 45 45 45 46 46 47 49 51 53 56 58 60 61 62 62 61 61 60 59 59 60
68 69 68 70 71 69 66 64 61 60 60 61 61 60 61 62 62 62 63 64 62 59 62 62 59 60 61 59 58 54 46 42 40 37 39 41 42 42 41 40 38 37 36 35 34 34 34 33 33 33 34 36 37 38 39 39 40 40 40 41 41 42 43 44 45 46 47 48 48 49 49 50 51 54 56 59 61 62 63 64 64 63 62 61 61 61
68 69 69 67 66 64 63 63 61 60 59 58 58 59 60 60 62 65 66 63 59 60 63 59 55 58 58 52 52 52 47 43 41 40 40 43 45 45 43 42 40 40 39 38 37 37 37 37 37 37 38 38 37 38 38 39 40 41 41 42 42 43 44 45 46 47 49 50 51 52 52 53 53 55 57 59 61 63 64 64 65 64 64 63 63 62
67 70 70 67 65 64 64 65 64 61 58 56 55 55 53 54 56 58 59 56 55 58 58 52 49 53 53 48 47 51 50 47 46 46 45 45 46 45 45 44 43 43 43 42 41 40 39 39 39 39 38 37 36 36 36 37 39 40 41 43 44 45 46 46 47 48 50 51 52 54 55 55 56 56 58 60 62 63 64 64 65 64 64 64 63 63
65 67 67 67 66 64 64 66 65 63 62 61 59 56 53 53 52 52 53 50 50 53 52 48 49 52 52 49 48 52 54 52 51 51 47 43 43 44 46 46 45 45 44 43 42 41 41 40 39 38 38 38 38 38 38 39 40 41 42 44 45 46 47 47 48 49 50 52 53 54 55 56 57 57 59 60 62 63 64 64 64 64 64 63 63 63
63 65 64 63 65 67 66 65 64 64 65 64 62 60 58 57 55 54 53 50 50 52 50 49 53 53 52 52 52 53 53 52 52 51 44 39 41 44 45 46 46 45 44 42 42 42 41 41 41 41 41 41 41 41 41 42 42 43 43 44 45 45 46 47 48 50 51 52 53 54 55 56 57 58 59 60 62 63 64 64 64 64 63 63 63 63
62 65 65 64 67 68 66 64 63 62 63 65 65 64 61 60 58 56 53 50 50 50 47 48 50 46 44 48 50 49 48 48 51 50 44 41 43 45 46 46 44 43 43 43 44 45 44 44 43 43 43 42 42 43 43 43 43 44 44 45 45 46 46 47 48 49 50 51 52 53 54 55 56 57 58 59 60 61 62 63 63 63 63 63 63 62
61 63 64 65 67 66 64 65 64 63 67 70 66 60 58 56 54 52 51 49 49 49 48 47 43 37 37 40 40 42 46 47 49 51 49 46 45 45 45 44 42 42 43 44 45 45 44 43 42 42 42 43 43 43 43 43 43 43 44 44 45 46 47 48 49 50 50 51 51 52 53 54 55 56 57 57 58 58 59 60 61 61 62 62 62 61
59 61 62 63 64 64 65 65 65 70 75 69 58 53 53 52 51 51 50 48 49 49 48 45 39 36 38 38 37 40 45 46 48 50 51 50 50 48 44 41 41 41 42 43 43 42 41 40 41 42 42 43 43 43 43 43 44 44 44 44 45 45 46 47 48 49 50 50 51 51 52 52 53 54 56 56 56 57 57 58 58 59 60 59 59 59
59 59 60 60 62 63 63 64 68 74 70 60 55 56 56 53 53 54 52 49 49 48 44 42 39 38 38 38 38 40 42 45 48 49 50 53 54 51 45 41 41 41 41 41 40 39 40 40 41 42 42 42 42 43 44 44 44 44 45 45 45 44 45 45 45 46 47 48 49 50 50 51 52 53 55 56 57 57 58 58 59 59 60 59 59 58
62 60 58 58 60 62 63 67 69 66 61 60 62 63 60 57 55 54 52 48 47 46 46 44 42 42 40 38 38 39 41 45 48 48 49 52 51 47 43 41 41 41 40 39 39 39 40 40 40 41 41 42 42 43 44 44 44 44 44 44 43 42 42 43 43 44 44 45 47 47 49 50 51 53 55 56 57 58 59 60 60 61 61 60 60 59
60 62 61 61 61 60 62 65 63 60 61 63 63 61 58 55 51 50 49 45 43 45 47 45 43 42 39 36 37 39 41 45 46 44 45 46 44 42 41 41 40 40 39 40 39 39 39 39 39 40 41 42 43 43 43 44 44 43 42 42 42 41 41 41 42 43 43 44 46 46 47 49 51 52 54 56 57 59 60 61 62 62 62 62 61 59
58 60 62 63 62 59 60 60 60 62 63 59 55 53 52 51 51 54 56 51 46 47 47 43 41 38 36 38 40 40 42 44 41 38 41 42 40 40 40 41 41 40 40 39 38 38 38 39 40 41 43 44 44 44 43 43 42 41 40 41 42 42 43 44 44 45 46 46 47 47 48 49 50 51 53 54 56 58 59 60 61 62 62 62 61 60
56 57 58 60 62 61 61 60 60 61 57 51 49 50 51 54 55 58 62 56 46 45 46 43 40 39 39 41 41 42 45 42 34 34 40 39 36 38 41 42 41 39 38 37 38 38 39 40 42 45 46 46 46 45 44 43 43 42 42 43 45 46 47 48 48 48 49 49 49 49 49 50 50 51 52 53 55 56 58 59 60 61 61 60 60 59
53 53 54 57 59 59 59 58 57 56 52 48 47 47 50 53 52 56 61 49 33 35 41 39 37 39 42 43 43 45 43 36 30 35 38 35 35 39 42 41 38 36 35 36 37 39 41 43 46 48 49 49 48 47 46 46 45 46 46 47 49 51 52 52 51 49 48 49 49 50 51 51 51 51 52 52 54 55 56 58 59 60 60 60 60 59
52 52 53 54 55 56 55 53 51 52 50 47 45 45 47 50 53 56 53 38 27 30 36 36 38 40 41 44 45 44 40 36 35 37 37 36 39 40 39 38 36 34 33 35 37 40 44 47 49 50 50 50 49 48 48 48 49 50 51 51 51 51 51 51 50 48 47 47 48 50 51 51 51 51 51 52 53 54 56 57 58 59 59 59 59 59
51 51 51 51 52 53 53 50 47 48 49 47 47 47 48 51 54 51 42 34 31 32 33 36 41 41 41 43 43 42 40 39 39 38 38 40 40 38 37 36 34 34 34 36 39 43 46 48 49 50 49 49 49 49 49 50 50 50 50 49 48 47 46 46 46 45 45 46 47 49 50 50 51 51 52 52 53 54 54 55 56 56 57 57 56 56
48 47 48 49 49 50 52 50 47 46 46 46 48 49 50 52 51 46 41 39 37 33 33 37 41 41 42 43 42 41 41 41 41 40 39 40 38 37 38 37 35 36 37 39 41 43 44 46 47 48 48 48 48 48 48 47 47 46 45 44 43 42 42 42 42 41 42 44 45 47 48 49 50 50 51 51 51 51 51 50 51 51 51 51 50 50
45 45 45 45 45 48 50 47 44 43 43 45 48 49 49 50 50 48 46 44 42 41 41 43 42 40 40 41 41 41 41 41 41 40 39 39 38 37 38 38 38 39 40 40 41 41 42 43 44 46 47 47 47 46 45 44 43 42 42 41 41 40 40 40 40 39 40 41 42 43 45 46 46 47 47 48 47 47 47 46 46 47 47 46 46 45
43 42 42 43 43 44 42 39 37 39 42 44 46 48 48 48 51 51 48 45 45 46 47 47 45 40 38 38 40 40 40 40 40 40 40 39 38 38 39 40 40 41 41 41 40 39 40 42 43 44 45 45 45 45 44 43 43 43 43 43 43 43 42 41 40 39 39 39 40 40 41 42 43 44 44 45 45 45 45 45 45 45 44 43 42 41
42 40 39 40 41 41 41 41 38 39 42 43 44 45 45 45 47 48 46 45 46 46 46 47 45 42 39 38 38 39 40 40 40 41 41 40 41 42 41 40 40 41 41 40 39 39 40 41 42 43 43 44 45 45 45 46 46 46 47 46 46 45 44 43 42 41 40 40 40 40 41 41 42 43 43 44 44 44 44 44 45 44 44 43 42 42
45 43 40 40 41 42 45 46 43 43 45 46 45 44 44 44 44 45 45 45 44 44 45 45 45 44 42 39 39 40 41 41 43 43 43 44 45 43 41 40 41 42 41 40 39 39 40 41 41 42 43 43 45 45 46 48 48 48 48 47 47 46 45 44 43 42 41 41 41 41 41 41 42 42 43 44 44 45 45 45 45 45 45 45 44 44
44 43 43 43 43 44 45 45 45 46 47 47 47 46 44 44 45 46 47 46 43 42 43 44 44 44 43 41 41 42 43 45 46 46 45 46 45 43 42 43 44 43 42 42 41 41 41 41 41 42 42 43 44 45 46 47 47 48 48 48 48 47 46 45 44 43 42 42 41 41 41 41 42 42 43 43 44 45 45 46 46 47 47 47 47 47
43 43 43 42 43 44 44 45 47 50 50 50 50 48 46 47 47 48 48 47 43 39 39 41 42 42 43 43 44 46 48 49 48 47 46 46 45 45 46 46 47 46 45 44 44 43 42 41 41 42 43 44 45 45 46 46 47 48 48 48 49 49 48 47 46 45 44 43 42 42 42 42 43 43 43 44 44 45 46 46 47 48 49 49 49 49
46 44 42 42 44 44 43 42 44 48 50 52 52 51 51 51 50 48 46 45 42 38 37 39 41 43 44 46 48 50 51 50 49 48 49 49 49 48 49 49 49 48 47 47 47 45 43 42 42 43 44 45 45 46 46 47 47 48 48 49 50 50 50 49 49 48 47 45 44 44 44 44 44 44 44 45 45 46 47 48 49 50 50 50 50 50
46 43 41 42 43 42 40 40 41 44 47 49 51 52 52 50 46 43 40 39 38 37 37 39 41 43 45 47 49 50 49 49 50 51 53 53 52 52 52 52 51 50 50 50 49 46 45 44 44 45 46 46 46 47 47 47 48 48 49 50 50 51 51 51 50 50 49 49 48 48 47 47 47 46 47 47 48 48 49 50 51 51 51 51 51 52
Wind_Direction
223 223 225 228 230 230 230 230 229 229 230 233 237 238 238 239 238 238 237 238 241 244 244 245 244 241 238 240 245 247 249 250 248 247 248 250 250 251 255 254 253 251 250 253 255 255 254 253 251 249 248 248 249 252 253 254 255 254 255 255 255 254 252 250 247 243 240 238 237 238 240 244 250 255 260 265 269 271 273 274 274 275 276 276 276 277
226 226 223 226 229 230 233 234 232 232 232 233 236 239 240 240 241 240 237 237 241 245 246 248 245 241 238 240 245 248 248 247 246 247 248 250 249 249 253 257 257 255 253 255 258 259 258 257 255 252 249 249 250 251 252 254 256 258 259 258 256 254 252 251 248 245 242 240 239 239 242 246 251 256 262 267 269 271 272 272 272 273 274 275 275 276
225 224 222 226 229 230 232 233 233 233 233 234 236 239 240 240 242 243 239 237 241 246 247 249 247 242 240 240 242 246 248 246 245 247 249 251 250 249 253 258 260 260 258 258 259 260 261 259 257 255 253 252 251 251 253 255 257 259 261 260 258 256 252 251 250 247 244 242 242 242 245 249 253 258 263 268 270 271 270 269 270 271 273 275 276 277
224 222 222 226 229 231 231 231 231 231 231 233 234 237 239 240 241 243 244 240 240 246 249 250 248 243 242 242 241 244 247 246 245 247 249 250 251 250 252 254 257 261 261 260 260 260 262 261 260 259 256 253 251 252 253 255 256 256 258 259 261 260 257 254 252 250 247 246 246 247 249 252 256 259 263 267 269 269 267 267 269 271 273 276 279 280
225 223 226 228 229 230 230 229 229 229 230 232 233 235 238 240 241 243 245 244 241 243 248 250 248 243 242 244 244 243 245 244 244 248 250 251 252 252 252 253 256 261 261 261 262 262 262 263 263 261 259 256 256 256 255 254 255 255 256 257 259 261 260 257 255 253 251 250 249 250 253 256 258 259 262 265 266 267 267 269 271 272 274 276 278 279
226 225 227 230 231 231 231 230 229 229 229 231 232 234 236 238 240 242 243 245 243 241 243 249 249 243 241 244 244 244 244 245 245 248 251 252 252 253 253 254 258 261 261 261 263 264 264 264 263 263 263 262 260 258 256 254 254 255 257 258 259 261 260 259 257 256 255 253 252 253 255 258 260 261 263 264 265 266 268 270 271 271 273 274 275 276
226 225 227 230 231 231 232 232 231 230 231 232 233 234 236 236 238 240 242 244 244 242 241 244 248 246 242 241 243 244 245 246 247 247 250 254 255 256 257 256 258 260 261 261 263 265 266 265 264 263 263 262 260 258 256 256 257 259 259 260 261 261 262 263 262 261 260 258 257 257 257 258 261 263 264 264 265 266 267 268 269 270 271 272 273 274
224 225 226 228 230 231 232 233 232 231 232 234 235 236 237 238 239 242 243 244 243 244 243 243 247 249 243 238 241 244 245 247 248 248 251 255 257 259 260 258 257 257 260 262 263 265 267 267 266 263 261 260 259 257 258 260 261 262 262 262 263 263 264 265 265 265 265 263 261 261 261 261 262 263 263 263 265 267 268 268 268 268 269 270 271 272
223 224 226 227 229 230 230 232 234 233 233 234 235 236 237 239 240 242 243 244 243 244 245 245 248 250 244 237 239 243 246 247 249 251 252 254 257 260 260 259 256 255 258 262 264 265 266 266 265 263 259 258 259 259 260 261 262 262 263 264 265 265 265 265 265 265 265 265 264 264 264 265 265 264 263 263 265 267 268 268 268 269 270 270 271 272
226 225 226 228 230 231 231 232 233 234 234 234 236 237 237 238 239 241 243 245 246 245 245 247 251 252 245 237 238 241 245 249 251 252 254 255 257 258 257 256 255 254 255 258 261 264 265 263 262 262 260 258 260 262 262 262 263 264 264 264 264 265 265 266 266 266 267 267 267 267 267 268 267 267 265 265 266 267 268 269 270 270 271 272 272 274
227 227 228 229 229 231 232 233 233 234 234 234 236 237 239 238 238 241 243 245 247 246 245 247 250 253 248 237 235 240 244 250 252 254 257 259 259 258 257 256 255 254 255 256 258 261 262 260 258 260 261 260 260 261 262 263 264 265 264 264 264 264 264 265 266 267 268 269 269 270 270 269 269 269 268 268 267 268 269 270 271 272 273 274 275 277
226 227 228 229 230 230 231 232 232 234 235 236 236 237 240 241 240 242 243 245 246 245 245 246 248 252 249 239 236 240 244 250 253 254 256 259 258 256 254 255 256 255 254 256 257 260 262 261 258 259 261 261 260 260 261 263 265 266 266 265 264 264 264 265 265 266 267 268 269 270 270 270 269 269 269 269 269 269 269 270 272 274 275 276 278 278
224 226 226 227 229 230 230 230 229 230 233 235 236 237 239 242 242 243 243 244 245 244 245 247 247 248 248 247 248 246 246 250 251 251 252 255 257 255 250 248 252 255 254 255 258 260 262 263 262 260 260 260 261 262 263 265 268 270 269 268 267 265 265 264 264 265 266 266 267 268 269 269 269 269 269 269 269 269 270 271 272 273 275 277 278 279
223 225 226 225 226 227 228 229 229 230 231 233 235 237 238 240 241 242 242 243 244 245 246 249 250 249 247 251 254 252 248 249 250 250 250 253 256 257 254 249 251 257 259 258 259 261 263 264 265 264 263 262 262 264 265 267 270 272 271 269 269 267 266 265 265 265 265 266 266 267 268 269 270 270 269 269 269 269 270 270 271 272 274 275 277 277
223 224 224 224 224 226 228 229 231 233 235 236 237 238 239 240 242 243 245 246 247 248 249 251 253 250 247 250 253 256 254 251 252 252 250 251 254 257 259 258 257 259 262 263 263 264 265 266 267 268 268 267 266 265 265 267 269 271 271 270 269 269 268 267 266 266 266 267 267 267 268 269 269 270 270 270 270 270 270 270 271 271 272 273 274 275
223 224 225 225 224 226 227 229 230 231 232 232 234 237 238 239 242 244 245 246 247 248 248 248 249 248 248 249 252 257 258 253 252 252 251 250 252 256 259 262 262 261 261 263 264 264 265 266 267 269 270 270 270 269 268 268 269 270 271 271 271 270 269 269 268 268 268 268 268 268 268 269 269 270 270 271 271 271 271 271 271 272 272 273 274 275
222 224 225 226 227 227 227 229 230 230 230 230 231 233 235 236 238 240 241 243 244 244 244 244 245 247 249 250 251 256 258 256 252 251 252 252 253 255 257 260 263 263 262 262 262 264 265 266 267 268 270 271 272 272 272 271 271 271 271 272 273 272 272 271 270 269 269 269 270 270 270 271 271 271 271 271 271 272 272 272 273 273 274 274 275 275
222 223 223 224 226 227 228 230 231 231 232 232 232 234 235 235 236 237 239 241 243 245 245 244 245 247 248 248 251 255 259 260 254 248 249 252 253 255 256 257 259 261 263 263 263 263 264 266 267 269 271 272 273 274 274 275 275 275 275 275 275 275 275 274 272 271 270 270 271 272 272 272 272 272 272 272 272 272 272 272 272 272 273 273 274 274
221 222 223 223 224 225 225 227 229 230 231 232 234 236 237 238 238 239 241 243 245 246 247 245 245 246 246 246 250 255 259 260 258 249 246 248 250 253 255 257 257 258 261 263 264 265 265 266 268 269 271 273 275 276 276 277 278 279 279 278 277 277 277 276 275 274 271 270 270 271 272 272 272 272 272 272 272 271 272 272 272 272 272 273 274 274
221 221 223 224 225 225 225 226 227 227 228 229 231 232 234 237 240 241 242 244 245 247 248 248 247 245 245 246 250 255 257 257 258 256 251 249 250 252 254 257 259 259 259 260 262 264 265 267 269 271 274 276 278 280 280 280 280 280 280 279 279 278 277 277 276 275 273 271 269 269 269 270 271 271 272 272 272 272 273 273 273 273 273 273 274 274
221 221 222 224 226 225 225 227 229 230 231 231 231 232 232 234 235 237 238 239 241 242 244 246 246 244 244 247 249 252 255 257 260 262 259 255 252 251 250 252 255 258 259 259 261 262 263 266 269 273 276 279 281 283 284 284 283 282 281 279 278 278 277 277 276 275 274 272 270 269 268 268 269 270 271 271 271 272 273 274 274 274 274 274 274 274
220 220 221 224 227 227 227 229 231 232 233 234 235 237 237 238 237 237 238 239 240 242 244 247 247 245 245 249 250 251 255 259 262 263 263 258 252 248 246 247 249 253 256 258 259 261 263 265 267 271 274 277 280 282 283 284 284 283 282 281 279 278 277 277 276 276 275 274 273 271 269 268 268 268 270 271 272 272 273 273 274 275 275 276 276 275
221 222 222 223 226 228 228 229 231 233 234 234 235 236 238 239 240 240 242 244 245 246 248 251 251 248 248 252 253 252 252 255 259 261 261 258 253 248 246 245 245 247 250 254 258 261 264 267 269 271 272 274 277 279 281 282 283 283 283 282 281 280 279 279 278 278 277 276 275 274 273 271 270 269 269 270 271 272 272 273 274 275 276 277 277 277
222 222 222 222 224 227 228 229 231 232 233 233 233 233 234 237 239 241 243 245 246 246 246 250 251 248 248 250 252 251 250 251 255 258 258 258 256 254 251 249 248 249 251 254 256 259 263 267 271 273 275 277 278 280 281 282 282 283 282 282 282 282 281 281 281 280 279 278 276 275 275 274 272 271 271 270 270 271 271 272 273 274 275 276 276 276
223 221 220 220 222 225 227 227 228 229 231 233 233 234 236 238 239 241 241 242 244 244 244 247 247 246 247 249 249 250 249 249 251 253 255 257 258 258 259 259 257 256 256 256 257 259 263 267 272 275 279 281 282 283 283 283 283 283 283 283 283 282 282 281 281 281 280 279 279 278 277 276 275 274 273 272 271 271 271 271 272 273 274 275 275 275
223 223 221 221 221 223 226 229 230 230 232 232 232 233 235 237 239 241 242 242 243 243 244 245 245 245 247 248 249 251 251 250 250 251 253 257 259 260 261 262 262 261 260 260 261 263 266 268 271 275 279 282 284 286 286 285 285 284 282 282 281 281 280 280 279 279 279 279 279 279 278 277 276 275 274 273 272 272 271 271 271 272 273 273 274 274
221 223 224 224 226 229 233 238 238 237 236 234 233 232 233 234 235 236 238 240 241 242 243 243 243 244 245 247 251 254 254 252 251 252 254 257 259 260 260 261 261 261 261 262 264 266 268 270 273 276 279 282 283 284 286 286 285 285 283 282 281 280 279 279 279 278 278 277 277 276 276 276 275 274 274 273 272 272 272 272 272 272 272 272 273 273
223 224 224 225 228 231 235 238 240 240 240 241 239 238 237 236 236 236 237 237 238 240 241 240 241 243 243 246 252 255 255 254 253 252 254 255 257 259 259 259 259 260 261 263 265 267 269 271 274 277 279 280 281 282 284 286 286 286 286 285 283 282 281 280 279 278 277 276 275 274 274 274 274 273 273 273 272 272 272 272 272 272 272 272 272 272
227 228 228 227 227 230 232 234 236 238 239 241 242 241 241 243 244 244 244 243 243 245 244 242 244 245 242 244 250 254 255 255 253 253 252 252 254 256 257 257 258 260 263 265 267 269 271 273 275 277 279 280 281 281 282 283 284 284 285 285 284 283 282 281 279 278 276 275 274 273 273 273 273 272 272 272 272 272 272 272 272 272 272 272 273 273
229 229 228 228 228 230 232 232 233 234 235 237 239 240 240 242 244 246 247 246 246 249 248 244 244 245 243 243 246 249 252 253 253 253 251 250 252 253 253 254 257 260 264 266 269 270 272 274 275 276 277 278 279 281 282 283 284 284 283 283 283 282 282 281 280 279 278 277 276 275 274 273 272 272 271 271 271 272 272 272 272 272 272 273 273 274
229 229 228 227 227 229 230 230 231 232 234 236 238 238 239 241 242 243 243 241 242 245 246 244 244 244 243 245 245 246 249 252 253 253 252 251 251 251 252 255 258 262 264 265 267 268 269 272 274 275 277 279 281 283 284 285 285 284 283 282 282 281 280 280 279 279 279 278 278 277 277 276 275 274 273 273 272 272 272 272 273 273 274 274 274 275
228 230 229 228 228 228 229 231 232 234 236 238 237 236 238 240 242 243 243 244 245 247 246 245 244 243 244 246 248 249 250 250 252 253 254 254 251 249 253 257 259 261 262 262 264 266 269 272 275 277 279 282 284 285 285 285 285 284 284 284 283 282 281 280 280 280 280 280 280 279 278 278 277 277 277 276 276 275 274 274 274 274 275 275 276 276
227 229 230 230 231 231 232 234 235 237 238 238 236 236 239 242 244 245 244 244 246 247 245 244 242 242 246 248 247 247 247 246 248 250 252 253 252 251 254 256 258 259 261 263 266 268 271 274 277 280 282 284 285 286 286 286 286 285 284 284 284 283 283 282 282 282 283 283 283 282 281 280 280 280 280 280 279 279 278 277 276 276 276 276 277 277
227 228 230 231 232 233 233 234 236 237 237 237 237 239 242 243 243 245 244 244 246 247 246 243 238 237 242 242 238 237 240 241 243 244 247 250 253 255 255 257 259 261 263 265 267 270 274 277 280 282 284 285 286 287 287 287 286 286 285 285 284 284 284 284 284 284 285 285 286 286 285 285 283 283 282 282 282 281 280 279 278 277 276 277 277 277
228 227 229 230 231 232 233 234 235 236 235 236 236 237 239 241 242 244 245 244 244 244 243 238 233 232 236 236 232 231 232 235 238 240 243 248 252 256 258 259 260 261 263 265 268 272 276 279 282 283 285 286 287 287 288 287 287 286 286 285 285 285 285 285 285 285 285 286 286 286 286 285 284 283 282 282 283 283 282 281 279 278 276 276 276 276
230 230 231 232 231 232 233 234 236 236 235 234 234 234 236 238 240 241 239 234 232 235 235 232 228 227 231 233 231 229 228 230 234 237 241 246 251 256 259 260 260 261 263 267 271 275 278 281 283 285 286 287 287 287 287 287 287 286 286 285 285 285 285 285 285 284 285 285 284 284 283 282 282 281 281 282 282 283 283 282 280 279 277 276 276 276
229 232 233 235 235 234 235 236 236 236 235 234 234 234 237 239 241 243 242 237 236 241 242 238 234 233 235 234 232 231 230 230 234 238 243 245 249 253 255 258 260 263 266 270 274 278 281 283 284 285 286 286 286 286 286 285 286 286 286 286 286 286 286 286 286 286 286 285 284 283 282 280 279 279 279 280 281 281 281 281 280 280 279 277 276 276
225 229 232 235 237 237 238 238 237 236 235 234 235 237 239 241 242 245 247 244 241 243 244 240 237 237 234 231 231 232 231 231 236 241 242 242 245 250 254 256 259 264 268 272 276 279 281 283 284 285 286 286 285 285 284 285 285 285 286 286 287 287 287 288 288 288 288 288 286 284 282 279 278 278 278 278 279 279 280 281 281 281 281 279 278 276
223 226 230 234 236 236 237 238 237 238 236 236 240 240 239 239 239 242 246 243 235 236 240 236 232 229 223 223 228 230 230 233 238 238 238 241 244 248 252 255 258 262 268 272 276 279 281 283 285 285 284 284 283 284 284 285 285 285 286 287 289 290 290 290 290 290 289 288 286 284 282 280 279 278 278 278 279 279 280 281 282 282 282 281 280 279
220 224 229 234 236 236 237 238 239 237 234 235 241 241 239 240 239 240 244 242 231 231 237 234 229 226 221 220 224 227 230 235 236 233 236 242 244 245 250 254 258 262 267 272 276 279 282 283 284 283 283 282 282 283 284 285 286 286 287 288 290 291 290 290 290 289 288 286 284 283 281 280 279 278 278 279 279 280 281 282 283 283 283 283 283 282
221 224 228 234 237 238 238 239 238 234 229 231 237 238 238 239 238 238 241 240 228 224 228 230 229 225 221 221 223 226 232 235 233 233 237 242 244 247 250 253 258 264 268 273 278 281 282 282 282 282 282 282 283 284 285 285 285 285 286 287 288 288 288 288 288 287 286 284 282 280 280 279 279 278 278 278 279 280 281 282 283 284 285 285 285 285
223 225 228 231 234 236 237 237 235 229 225 228 233 234 234 235 235 237 238 236 230 222 220 226 230 227 224 224 225 228 232 233 233 234 237 240 244 248 251 254 259 264 269 274 278 280 281 281 282 283 283 284 284 285 285 285 285 285 285 285 285 284 284 285 286 286 285 283 281 280 279 279 279 279 279 279 280 281 282 284 285 286 287 287 288 288
226 228 231 232 233 235 235 235 233 226 221 224 231 233 234 234 234 234 231 230 232 229 224 226 229 229 228 227 226 228 231 233 235 236 237 239 242 246 251 256 260 262 267 273 277 279 282 284 285 286 285 285 285 285 285 285 286 286 286 286 285 285 285 286 286 286 284 283 282 281 281 281 281 282 283 284 285 286 287 287 288 288 289 290 290 291
229 231 235 235 234 235 233 230 228 222 217 220 227 231 232 231 231 230 227 226 228 230 230 230 228 226 227 228 229 231 233 235 237 237 237 239 241 246 251 255 257 261 267 272 277 280 283 283 284 284 284 284 285 285 286 286 286 286 286 287 287 287 287 287 287 286 285 284 283 284 284 285 286 287 288 289 291 292 292 292 292 292 292 292 292 292
229 232 237 237 236 237 233 228 227 226 220 220 223 226 226 224 224 226 228 228 229 231 233 236 235 230 227 228 231 233 234 236 237 237 238 240 243 246 249 252 257 263 267 272 276 278 279 279 280 281 281 282 283 284 284 284 284 285 286 287 288 288 288 288 287 286 285 285 285 285 286 287 288 290 291 292 293 294 294 294 294 294 293 293 293 293
229 231 234 234 233 232 226 222 222 222 220 220 222 223 224 224 225 228 229 231 233 234 236 239 240 238 235 233 233 235 237 238 238 238 239 241 242 243 247 253 259 264 267 270 272 273 275 277 278 279 280 280 281 281 282 282 283 285 286 286 287 287 287 287 286 286 286 285 285 285 286 287 288 290 291 292 293 294 294 295 295 294 295 295 295 295
229 229 228 226 226 224 220 217 217 215 215 217 219 221 226 229 232 234 235 234 233 232 233 235 237 239 239 238 237 237 238 238 238 238 239 240 240 243 248 254 259 262 265 266 267 270 273 275 276 277 278 278 279 279 280 281 283 284 285 285 285 285 285 285 284 284 284 284 285 285 285 286 287 288 289 291 292 293 294 294 294 295 295 296 297 297
227 227 226 224 223 220 216 215 215 215 215 217 219 221 227 231 234 237 240 239 235 231 231 233 234 236 239 239 239 239 238 236 236 237 239 240 242 246 250 254 258 260 261 262 264 267 269 271 273 274 275 275 276 277 278 280 281 282 283 284 284 283 283 283 283 283 283 283 283 283 283 284 285 286 287 288 289 290 291 292 293 294 295 295 296 296
226 226 225 225 224 220 214 212 214 215 216 218 221 223 225 229 233 236 239 241 239 235 233 233 233 234 236 236 236 236 235 235 235 238 240 242 244 248 251 254 257 258 258 260 262 264 266 269 271 272 272 272 273 274 276 277 279 280 282 282 282 282 282 282 283 283 283 283 283 282 282 282 282 283 284 285 286 286 288 289 290 291 292 293 293 293
223 224 223 225 225 220 215 214 216 218 218 219 221 222 221 223 228 234 239 243 246 244 239 235 232 232 232 232 232 234 235 236 237 240 242 243 244 247 250 253 255 256 257 259 261 263 265 266 267 268 269 270 271 272 274 275 277 278 280 280 281 282 282 283 284 284 284 284 284 283 282 282 281 281 282 282 283 284 285 286 287 288 289 289 289 290
221 222 223 225 225 221 217 217 219 221 221 221 222 223 224 226 232 238 243 247 248 245 240 235 232 230 230 230 231 234 236 237 239 240 241 243 244 246 249 252 254 255 257 259 262 264 266 266 265 266 267 267 269 270 272 273 275 277 278 279 280 281 281 282 283 283 284 284 283 283 283 282 282 281 281 281 282 283 283 284 285 285 286 286 287 287
Height
5759 5761 5765 5772 5779 5785 5789 5793 5796 5799 5801 5802 5802 5805 5809 5811 5814 5815 5818 5822 5822 5821 5826 5828 5830 5834 5837 5839 5840 5842 5842 5842 5844 5846 5848 5850 5851 5852 5854 5855 5856 5858 5858 5858 5860 5863 5864 5864 5865 5866 5867 5867 5868 5869 5869 5870 5871 5872 5873 5874 5874 5875 5876 5877 5878 5878 5879 5879 5879 5879 5880 5880 5881 5881 5881 5881 5881 5881 5881 5881 5881 5881 5881 5880 5880 5880
5752 5755 5764 5773 5778 5782 5787 5790 5793 5795 5798 5799 5799 5802 5806 5807 5809 5812 5814 5818 5819 5819 5823 5825 5826 5830 5834 5836 5837 5838 5839 5839 5842 5844 5846 5847 5848 5850 5851 5853 5854 5855 5856 5857 5859 5861 5862 5863 5863 5864 5865 5866 5866 5867 5868 5869 5869 5870 5871 5872 5872 5873 5874 5875 5876 5876 5876 5877 5877 5877 5878 5878 5879 5879 5880 5879 5879 5879 5879 5879 5879 5878 5878 5878 5877 5877
5744 5753 5765 5771 5774 5777 5781 5785 5788 5791 5793 5795 5796 5798 5801 5804 5806 5807 5809 5814 5816 5816 5819 5821 5822 5826 5830 5833 5835 5836 5836 5838 5840 5842 5843 5844 5845 5847 5850 5851 5852 5853 5854 5855 5857 5859 5860 5860 5861 5862 5863 5864 5864 5865 5866 5867 5867 5868 5869 5869 5869 5870 5872 5873 5873 5874 5874 5874 5874 5875 5876 5876 5877 5878 5878 5877 5877 5877 5877 5876 5876 5875 5875 5875 5875 5874
5744 5756 5765 5766 5768 5771 5775 5779 5782 5785 5788 5789 5792 5794 5796 5800 5802 5803 5805 5810 5815 5814 5815 5818 5818 5822 5827 5829 5832 5834 5834 5836 5838 5839 5840 5841 5842 5845 5847 5848 5849 5850 5852 5853 5855 5857 5858 5858 5859 5861 5861 5861 5862 5863 5864 5865 5865 5866 5866 5866 5867 5868 5869 5870 5871 5871 5872 5872 5873 5874 5874 5874 5875 5875 5875 5875 5875 5874 5873 5873 5873 5873 5872 5872 5872 5872
5748 5759 5763 5762 5763 5765 5769 5773 5776 5780 5783 5784 5787 5790 5793 5796 5798 5800 5801 5806 5812 5812 5812 5813 5813 5817 5823 5826 5829 5831 5831 5833 5835 5836 5837 5839 5840 5842 5844 5845 5847 5848 5850 5850 5852 5854 5855 5856 5858 5858 5859 5859 5860 5861 5862 5862 5862 5863 5863 5864 5864 5865 5867 5868 5868 5869 5869 5870 5871 5872 5872 5872 5873 5873 5873 5873 5872 5871 5870 5870 5870 5870 5870 5870 5869 5869
5746 5754 5757 5757 5758 5762 5765 5769 5773 5777 5779 5780 5783 5787 5790 5792 5795 5797 5798 5802 5808 5809 5809 5810 5809 5812 5820 5824 5826 5828 5828 5830 5833 5833 5834 5836 5837 5839 5841 5843 5845 5847 5848 5848 5849 5851 5852 5854 5855 5856 5857 5857 5859 5859 5859 5859 5859 5860 5861 5862 5862 5863 5864 5865 5866 5866 5866 5867 5868 5869 5870 5870 5870 5870 5870 5870 5869 5868 5868 5868 5867 5867 5867 5867 5867 5866
5740 5747 5751 5751 5754 5760 5763 5766 5772 5775 5775 5777 5781 5785 5787 5789 5791 5794 5795 5799 5803 5805 5805 5807 5807 5808 5815 5822 5823 5825 5826 5827 5829 5830 5831 5833 5834 5836 5838 5840 5843 5844 5845 5846 5846 5848 5850 5851 5851 5853 5854 5855 5855 5856 5855 5856 5857 5858 5859 5860 5860 5861 5862 5863 5863 5864 5864 5865 5866 5866 5867 5867 5868 5868 5868 5867 5866 5865 5865 5865 5865 5865 5864 5864 5864 5863
5733 5741 5744 5746 5751 5755 5758 5763 5768 5771 5773 5775 5779 5782 5783 5787 5789 5791 5793 5794 5798 5801 5802 5804 5806 5806 5810 5819 5822 5822 5823 5824 5826 5828 5829 5830 5832 5834 5836 5837 5839 5841 5842 5843 5843 5844 5847 5848 5848 5850 5851 5851 5851 5851 5852 5854 5855 5856 5857 5857 5858 5858 5860 5860 5860 5861 5861 5861 5862 5863 5863 5864 5865 5865 5865 5864 5863 5863 5863 5863 5863 5862 5861 5861 5860 5860
5732 5736 5739 5745 5747 5748 5755 5761 5764 5768 5770 5772 5775 5778 5781 5785 5787 5788 5789 5790 5793 5797 5798 5802 5806 5804 5805 5815 5819 5819 5820 5822 5823 5825 5826 5827 5829 5831 5832 5833 5835 5837 5839 5839 5839 5840 5843 5845 5845 5846 5847 5847 5848 5848 5850 5851 5852 5852 5854 5855 5855 5856 5857 5857 5857 5858 5858 5858 5859 5860 5860 5861 5862 5862 5861 5861 5860 5860 5859 5859 5860 5859 5858 5857 5857 5857
5728 5732 5738 5740 5741 5746 5754 5757 5759 5764 5766 5768 5771 5773 5777 5781 5782 5784 5785 5787 5790 5792 5796 5801 5804 5801 5801 5809 5816 5817 5818 5820 5822 5823 5823 5824 5826 5828 5829 5829 5831 5833 5834 5835 5836 5836 5838 5841 5842 5842 5843 5844 5845 5846 5847 5848 5848 5849 5850 5851 5852 5853 5853 5853 5854 5855 5855 5855 5855 5856 5857 5858 5858 5858 5858 5857 5857 5857 5856 5856 5856 5856 5855 5854 5854 5854
5723 5729 5730 5730 5736 5745 5750 5752 5757 5760 5760 5764 5768 5769 5772 5775 5778 5780 5782 5785 5786 5788 5793 5798 5800 5799 5797 5803 5812 5815 5817 5819 5819 5820 5820 5820 5822 5824 5825 5826 5828 5829 5830 5831 5832 5832 5833 5836 5838 5839 5839 5841 5842 5843 5844 5845 5845 5845 5846 5847 5848 5849 5849 5850 5851 5851 5852 5852 5852 5853 5854 5854 5854 5855 5854 5854 5854 5854 5853 5852 5852 5852 5852 5851 5851 5851
5715 5719 5721 5727 5736 5741 5743 5746 5752 5754 5756 5761 5764 5766 5769 5771 5775 5777 5779 5781 5782 5785 5789 5792 5796 5797 5794 5799 5808 5814 5817 5817 5817 5818 5818 5817 5818 5820 5822 5823 5824 5825 5826 5827 5828 5829 5830 5831 5834 5835 5837 5838 5839 5840 5841 5841 5842 5842 5842 5843 5843 5844 5845 5846 5846 5847 5848 5848 5848 5849 5849 5850 5850 5850 5851 5851 5850 5850 5850 5849 5849 5849 5848 5848 5848 5848
5706 5710 5717 5726 5731 5733 5736 5740 5744 5747 5750 5755 5759 5763 5766 5767 5770 5772 5774 5776 5778 5782 5786 5787 5791 5794 5793 5797 5804 5810 5814 5814 5814 5815 5815 5815 5815 5817 5819 5820 5821 5821 5823 5824 5825 5826 5827 5827 5829 5831 5833 5834 5835 5836 5838 5838 5838 5838 5839 5839 5840 5840 5840 5841 5841 5842 5843 5844 5844 5845 5844 5844 5845 5846 5846 5846 5846 5846 5846 5846 5845 5845 5845 5845 5845 5844
5703 5706 5711 5716 5721 5725 5729 5733 5738 5742 5747 5752 5756 5759 5761 5761 5762 5764 5768 5771 5775 5779 5782 5782 5786 5790 5793 5796 5798 5804 5809 5810 5810 5812 5812 5812 5812 5813 5815 5817 5818 5819 5820 5821 5822 5823 5824 5824 5825 5827 5828 5830 5831 5833 5833 5834 5835 5835 5835 5836 5836 5836 5836 5836 5836 5837 5838 5839 5839 5840 5840 5840 5840 5841 5841 5841 5841 5841 5841 5841 5841 5841 5840 5840 5840 5840
5698 5697 5700 5708 5715 5720 5726 5732 5738 5744 5749 5752 5754 5755 5755 5755 5758 5762 5766 5770 5773 5776 5778 5779 5781 5786 5791 5794 5795 5798 5804 5806 5807 5808 5809 5809 5809 5810 5811 5813 5815 5817 5817 5818 5819 5820 5821 5821 5822 5823 5824 5825 5827 5828 5829 5830 5830 5831 5831 5832 5832 5832 5832 5832 5832 5832 5833 5834 5834 5835 5835 5835 5836 5836 5836 5836 5836 5837 5836 5836 5836 5836 5835 5835 5835 5835
5694 5693 5699 5709 5714 5718 5725 5731 5734 5738 5741 5744 5746 5746 5747 5752 5758 5760 5762 5766 5768 5769 5771 5774 5777 5783 5788 5790 5792 5794 5798 5802 5803 5804 5805 5806 5806 5807 5808 5809 5811 5813 5814 5815 5816 5816 5817 5818 5818 5819 5820 5821 5822 5823 5824 5825 5826 5827 5827 5827 5828 5828 5828 5828 5828 5828 5829 5829 5829 5830 5830 5831 5831 5831 5832 5832 5832 5831 5831 5831 5831 5831 5830 5830 5830 5829
5691 5694 5702 5709 5713 5717 5722 5724 5726 5730 5733 5736 5736 5736 5741 5749 5752 5753 5755 5758 5760 5761 5765 5770 5774 5779 5783 5785 5788 5791 5794 5798 5799 5800 5801 5802 5803 5804 5805 5806 5807 5808 5809 5811 5812 5813 5813 5814 5815 5815 5816 5817 5818 5819 5820 5820 5821 5822 5822 5823 5823 5824 5824 5824 5824 5825 5825 5825 5825 5825 5825 5826 5826 5827 5827 5827 5827 5826 5826 5826 5826 5826 5825 5824 5824 5823
5690 5693 5698 5703 5707 5713 5717 5720 5722 5726 5729 5730 5730 5735 5742 5744 5744 5747 5750 5752 5754 5756 5761 5767 5771 5774 5779 5782 5784 5787 5791 5793 5795 5796 5797 5798 5800 5800 5801 5803 5803 5804 5805 5806 5808 5809 5810 5810 5811 5812 5812 5813 5814 5815 5816 5816 5817 5817 5818 5819 5819 5820 5820 5820 5820 5820 5820 5820 5821 5821 5821 5821 5821 5821 5822 5822 5821 5821 5820 5821 5821 5820 5819 5818 5818 5817
5686 5689 5692 5696 5700 5704 5709 5712 5713 5716 5720 5723 5729 5735 5738 5738 5740 5744 5746 5749 5752 5754 5758 5764 5767 5769 5774 5779 5782 5784 5788 5789 5789 5792 5794 5795 5796 5797 5797 5798 5799 5800 5801 5802 5804 5805 5806 5807 5808 5809 5809 5810 5810 5811 5812 5812 5813 5813 5813 5814 5815 5815 5816 5816 5816 5816 5816 5816 5816 5816 5816 5815 5815 5815 5815 5816 5815 5815 5815 5815 5815 5814 5814 5813 5812 5812
5681 5683 5687 5691 5694 5698 5701 5701 5702 5706 5711 5717 5724 5727 5730 5732 5736 5739 5743 5746 5749 5751 5754 5758 5761 5765 5771 5776 5779 5782 5785 5785 5785 5787 5790 5791 5792 5793 5794 5794 5795 5796 5797 5798 5800 5801 5802 5803 5804 5805 5805 5806 5807 5807 5808 5808 5809 5809 5809 5810 5810 5810 5811 5811 5811 5812 5812 5812 5812 5811 5811 5810 5810 5809 5809 5809 5809 5809 5809 5809 5809 5809 5808 5808 5807 5806
5676 5678 5682 5686 5687 5689 5692 5694 5699 5705 5709 5713 5717 5719 5722 5725 5727 5732 5736 5738 5741 5744 5748 5751 5754 5762 5768 5772 5776 5779 5780 5781 5781 5782 5784 5787 5788 5789 5790 5790 5791 5792 5793 5794 5796 5797 5798 5799 5800 5801 5802 5802 5803 5803 5804 5804 5805 5805 5805 5805 5805 5805 5805 5806 5806 5806 5806 5806 5806 5806 5806 5805 5804 5803 5803 5803 5803 5804 5804 5803 5803 5803 5802 5802 5801 5800
5669 5672 5677 5679 5679 5683 5690 5696 5701 5703 5706 5712 5714 5716 5720 5721 5723 5726 5728 5733 5737 5741 5745 5747 5749 5758 5765 5768 5771 5775 5777 5778 5778 5778 5779 5781 5782 5783 5785 5786 5787 5788 5789 5790 5792 5793 5794 5795 5796 5797 5798 5799 5799 5800 5800 5800 5801 5801 5801 5801 5801 5801 5801 5800 5800 5800 5801 5801 5801 5801 5801 5800 5800 5799 5798 5798 5798 5798 5798 5797 5797 5796 5796 5796 5795 5794
5666 5669 5672 5674 5675 5680 5687 5692 5694 5697 5703 5707 5708 5712 5715 5716 5718 5723 5727 5734 5738 5740 5745 5745 5745 5754 5763 5764 5766 5771 5774 5774 5774 5774 5773 5774 5777 5778 5780 5782 5783 5784 5785 5786 5788 5789 5790 5791 5792 5793 5794 5794 5795 5796 5796 5796 5796 5797 5796 5796 5796 5796 5796 5795 5795 5795 5795 5796 5795 5795 5795 5795 5794 5794 5793 5792 5792 5792 5791 5791 5790 5790 5790 5790 5789 5788
5659 5662 5665 5669 5672 5675 5680 5685 5689 5692 5695 5696 5699 5705 5707 5709 5716 5721 5726 5731 5731 5734 5740 5739 5741 5751 5757 5758 5760 5765 5769 5771 5770 5769 5768 5768 5771 5773 5774 5777 5778 5780 5781 5782 5784 5785 5786 5786 5787 5788 5788 5789 5790 5791 5791 5791 5792 5792 5792 5792 5791 5791 5791 5790 5790 5790 5790 5790 5789 5789 5789 5789 5789 5788 5787 5787 5786 5785 5785 5784 5784 5783 5783 5783 5782 5781
5653 5654 5658 5663 5666 5668 5671 5674 5678 5682 5685 5690 5698 5703 5704 5709 5714 5716 5720 5723 5722 5728 5734 5733 5738 5747 5750 5752 5754 5758 5764 5767 5766 5765 5764 5763 5765 5767 5768 5771 5773 5775 5777 5778 5779 5780 5781 5782 5783 5783 5783 5783 5784 5785 5785 5786 5786 5786 5786 5786 5786 5786 5786 5786 5785 5785 5785 5784 5784 5783 5783 5783 5783 5782 5782 5781 5780 5779 5778 5778 5777 5777 5776 5776 5775 5774
5648 5648 5652 5655 5655 5656 5659 5665 5672 5679 5685 5690 5695 5698 5702 5706 5707 5709 5713 5712 5714 5724 5727 5726 5735 5743 5744 5746 5749 5753 5759 5762 5761 5761 5760 5759 5761 5762 5764 5766 5767 5770 5771 5773 5775 5776 5777 5778 5778 5779 5779 5779 5779 5779 5779 5779 5780 5780 5781 5781 5781 5781 5780 5780 5780 5780 5779 5779 5778 5777 5777 5776 5776 5775 5775 5774 5774 5773 5772 5771 5771 5770 5769 5769 5768 5767
5641 5643 5648 5650 5652 5657 5663 5668 5675 5681 5684 5686 5690 5693 5696 5697 5698 5700 5701 5701 5711 5720 5716 5719 5732 5736 5738 5744 5746 5748 5753 5755 5756 5756 5755 5756 5756 5757 5759 5761 5763 5765 5766 5768 5770 5771 5772 5773 5773 5774 5774 5774 5774 5774 5774 5774 5774 5775 5775 5776 5776 5776 5776 5775 5775 5775 5774 5773 5772 5771 5770 5770 5769 5768 5768 5767 5767 5766 5765 5765 5764 5763 5763 5762 5761 5760
5635 5637 5642 5648 5655 5661 5665 5669 5673 5677 5680 5684 5688 5690 5690 5691 5691 5691 5692 5698 5710 5709 5704 5717 5729 5729 5736 5744 5741 5740 5745 5748 5750 5751 5750 5751 5751 5751 5753 5755 5758 5760 5762 5764 5765 5766 5767 5767 5768 5768 5768 5768 5769 5769 5770 5770 5770 5770 5771 5771 5771 5771 5770 5770 5770 5769 5768 5767 5766 5765 5764 5763 5762 5762 5761 5760 5760 5759 5759 5758 5757 5757 5756 5755 5754 5753
5630 5633 5640 5646 5651 5656 5659 5663 5667 5671 5676 5680 5682 5684 5688 5689 5688 5689 5693 5701 5706 5701 5704 5721 5726 5725 5735 5740 5735 5734 5738 5740 5743 5744 5744 5745 5745 5746 5747 5749 5752 5755 5757 5760 5761 5761 5762 5762 5762 5763 5763 5764 5764 5764 5765 5765 5766 5766 5765 5765 5765 5764 5764 5764 5763 5762 5762 5761 5760 5758 5757 5756 5756 5755 5754 5754 5753 5753 5752 5752 5751 5750 5750 5749 5748 5747
5626 5631 5637 5642 5646 5650 5653 5656 5661 5665 5668 5670 5673 5677 5681 5682 5684 5687 5692 5698 5701 5698 5707 5720 5720 5721 5731 5732 5729 5730 5730 5733 5737 5737 5737 5739 5740 5740 5741 5743 5748 5751 5753 5756 5756 5755 5756 5756 5757 5757 5758 5759 5759 5759 5760 5760 5760 5760 5760 5759 5759 5758 5758 5757 5756 5756 5755 5754 5753 5752 5751 5750 5749 5748 5748 5747 5746 5746 5745 5745 5744 5743 5743 5742 5741 5740
5624 5627 5632 5638 5642 5644 5646 5650 5656 5658 5660 5663 5666 5670 5673 5675 5678 5681 5685 5691 5694 5695 5706 5713 5711 5716 5724 5722 5721 5725 5725 5728 5731 5730 5732 5735 5734 5733 5734 5739 5744 5747 5749 5750 5749 5749 5750 5750 5751 5752 5752 5753 5754 5754 5754 5754 5754 5754 5753 5753 5753 5752 5752 5751 5750 5749 5748 5747 5747 5746 5745 5744 5743 5742 5741 5740 5739 5738 5738 5737 5737 5736 5736 5735 5734 5733
5621 5623 5628 5633 5634 5636 5642 5647 5650 5653 5656 5656 5657 5662 5666 5669 5673 5677 5683 5689 5690 5694 5701 5703 5702 5713 5720 5716 5717 5722 5723 5724 5724 5724 5727 5727 5724 5725 5730 5735 5739 5741 5743 5743 5742 5742 5744 5745 5746 5746 5747 5748 5748 5748 5748 5748 5748 5747 5747 5746 5746 5746 5746 5745 5744 5743 5742 5741 5740 5739 5738 5737 5736 5735 5734 5733 5732 5731 5731 5730 5729 5729 5728 5728 5727 5726
5615 5618 5624 5627 5629 5635 5640 5641 5645 5649 5645 5642 5649 5659 5665 5668 5673 5677 5681 5685 5686 5689 5692 5694 5701 5712 5714 5711 5714 5717 5716 5717 5719 5719 5720 5717 5715 5719 5726 5731 5733 5735 5735 5735 5735 5737 5739 5740 5740 5741 5741 5742 5742 5742 5741 5741 5741 5740 5740 5740 5739 5739 5739 5738 5737 5736 5735 5735 5734 5733 5732 5731 5730 5729 5728 5727 5726 5725 5724 5724 5723 5722 5721 5720 5719 5718
5610 5614 5619 5623 5626 5630 5633 5636 5640 5634 5628 5636 5654 5663 5664 5667 5670 5672 5676 5680 5681 5682 5685 5691 5699 5704 5703 5704 5708 5709 5708 5711 5712 5712 5712 5710 5708 5713 5720 5725 5727 5728 5729 5728 5730 5732 5733 5734 5735 5735 5735 5735 5735 5736 5735 5735 5734 5734 5733 5733 5733 5733 5732 5732 5731 5730 5729 5728 5727 5727 5726 5725 5724 5723 5722 5721 5720 5719 5718 5717 5716 5715 5714 5713 5712 5711
5604 5609 5614 5617 5620 5622 5626 5629 5625 5619 5627 5645 5655 5656 5657 5662 5665 5667 5670 5674 5675 5677 5682 5687 5693 5696 5696 5697 5700 5701 5703 5704 5704 5705 5707 5706 5705 5709 5716 5719 5721 5722 5722 5723 5725 5727 5728 5729 5729 5728 5729 5729 5729 5730 5729 5729 5728 5727 5727 5727 5727 5726 5726 5725 5725 5724 5723 5722 5721 5720 5720 5718 5718 5716 5715 5714 5713 5712 5712 5710 5709 5708 5707 5707 5706 5705
5599 5604 5609 5611 5612 5615 5617 5615 5614 5621 5634 5641 5641 5644 5650 5655 5658 5661 5662 5665 5669 5671 5674 5679 5683 5687 5688 5690 5693 5695 5696 5696 5698 5701 5703 5702 5703 5706 5711 5713 5713 5715 5717 5718 5720 5721 5722 5723 5722 5723 5723 5723 5723 5723 5723 5722 5722 5721 5721 5721 5721 5721 5720 5720 5719 5718 5717 5716 5715 5714 5713 5712 5711 5710 5709 5708 5706 5705 5704 5703 5702 5701 5700 5700 5699 5698
5594 5599 5602 5602 5604 5608 5609 5610 5616 5624 5626 5626 5631 5640 5647 5652 5658 5659 5658 5662 5667 5667 5668 5673 5678 5681 5685 5688 5689 5690 5690 5691 5694 5698 5699 5699 5701 5703 5705 5706 5708 5710 5712 5713 5714 5716 5716 5716 5716 5716 5716 5716 5716 5716 5716 5716 5716 5716 5716 5715 5715 5715 5714 5714 5713 5712 5711 5710 5708 5708 5707 5706 5705 5704 5702 5701 5700 5699 5697 5696 5695 5694 5693 5693 5692 5691
5587 5591 5594 5596 5599 5603 5605 5607 5612 5613 5615 5623 5634 5641 5647 5652 5655 5654 5651 5654 5660 5662 5664 5670 5675 5678 5682 5683 5683 5684 5685 5686 5691 5696 5696 5696 5698 5699 5700 5702 5703 5705 5707 5707 5709 5710 5710 5710 5710 5710 5710 5710 5709 5709 5709 5710 5710 5711 5711 5710 5710 5710 5709 5708 5707 5706 5705 5703 5702 5701 5700 5699 5698 5697 5696 5695 5693 5692 5691 5690 5689 5688 5687 5686 5685 5684
5581 5585 5588 5590 5593 5596 5599 5602 5605 5608 5617 5628 5634 5638 5642 5644 5647 5646 5642 5644 5653 5659 5661 5664 5669 5671 5673 5675 5676 5678 5679 5683 5691 5693 5691 5692 5695 5696 5696 5697 5699 5701 5703 5703 5704 5704 5704 5705 5704 5704 5704 5704 5703 5703 5704 5704 5704 5705 5705 5705 5704 5703 5703 5702 5701 5700 5699 5697 5695 5694 5693 5692 5691 5690 5689 5688 5687 5686 5685 5684 5683 5681 5680 5679 5678 5678
5574 5577 5580 5582 5585 5590 5595 5598 5602 5608 5618 5625 5628 5632 5635 5637 5641 5640 5635 5641 5655 5659 5657 5661 5665 5665 5667 5668 5669 5670 5674 5681 5688 5688 5686 5688 5691 5690 5691 5693 5695 5697 5698 5699 5699 5699 5699 5699 5699 5699 5699 5698 5698 5698 5698 5698 5699 5699 5699 5699 5698 5697 5696 5695 5694 5694 5692 5691 5689 5687 5686 5685 5684 5683 5682 5681 5680 5679 5678 5677 5676 5675 5674 5673 5672 5671
5568 5571 5574 5577 5582 5587 5591 5595 5599 5606 5615 5620 5623 5625 5627 5629 5631 5630 5633 5645 5654 5654 5654 5657 5659 5660 5662 5662 5663 5667 5673 5678 5681 5681 5682 5684 5684 5684 5687 5689 5691 5692 5693 5693 5694 5694 5693 5693 5693 5693 5693 5693 5693 5693 5693 5693 5693 5693 5693 5693 5692 5690 5689 5688 5687 5686 5685 5684 5683 5681 5679 5678 5677 5676 5675 5674 5673 5672 5670 5669 5668 5667 5667 5666 5665 5664
5563 5567 5570 5574 5578 5582 5587 5591 5595 5601 5609 5614 5616 5617 5619 5620 5621 5626 5637 5645 5645 5647 5652 5653 5652 5655 5658 5658 5660 5665 5670 5672 5674 5677 5678 5678 5679 5680 5682 5684 5685 5686 5687 5688 5688 5688 5688 5688 5688 5688 5688 5688 5688 5687 5687 5687 5687 5686 5686 5685 5685 5684 5683 5681 5681 5680 5679 5678 5676 5675 5673 5672 5671 5670 5669 5667 5667 5666 5664 5663 5662 5661 5660 5659 5658 5657
5560 5564 5566 5570 5575 5579 5581 5584 5589 5596 5605 5609 5609 5611 5614 5618 5622 5628 5635 5637 5638 5643 5646 5646 5647 5650 5652 5655 5659 5662 5665 5667 5669 5671 5673 5673 5675 5676 5676 5678 5679 5680 5681 5682 5682 5682 5683 5683 5682 5682 5682 5682 5682 5682 5681 5681 5680 5680 5679 5679 5678 5678 5677 5676 5675 5674 5673 5672 5671 5669 5668 5667 5666 5664 5663 5662 5661 5660 5659 5658 5657 5655 5654 5653 5652 5651
5555 5559 5562 5567 5571 5573 5575 5580 5588 5595 5601 5604 5604 5607 5611 5616 5620 5623 5626 5630 5633 5636 5636 5638 5642 5645 5648 5652 5655 5657 5660 5662 5663 5666 5668 5668 5670 5671 5671 5672 5673 5673 5675 5675 5676 5677 5677 5677 5677 5677 5676 5676 5675 5675 5675 5675 5675 5674 5674 5673 5673 5672 5671 5670 5669 5668 5668 5667 5666 5665 5663 5662 5661 5660 5658 5657 5656 5655 5654 5652 5651 5650 5648 5647 5646 5645
5553 5557 5560 5563 5566 5569 5574 5582 5588 5592 5595 5598 5600 5603 5607 5611 5614 5617 5621 5625 5628 5630 5631 5632 5636 5641 5645 5648 5650 5652 5655 5656 5658 5660 5662 5663 5665 5665 5665 5666 5667 5667 5668 5669 5670 5670 5670 5670 5671 5670 5670 5670 5669 5669 5669 5669 5668 5668 5668 5667 5667 5666 5665 5664 5664 5663 5662 5661 5660 5659 5658 5657 5656 5655 5653 5652 5651 5650 5648 5647 5646 5645 5643 5642 5641 5639
5552 5554 5555 5558 5561 5565 5570 5576 5581 5585 5588 5593 5598 5601 5604 5607 5610 5612 5617 5620 5622 5625 5627 5628 5631 5636 5640 5642 5646 5648 5650 5651 5654 5655 5656 5657 5658 5658 5659 5660 5661 5661 5662 5663 5663 5663 5664 5664 5664 5664 5664 5664 5663 5663 5663 5662 5662 5662 5661 5661 5661 5660 5659 5659 5658 5657 5656 5655 5655 5654 5652 5651 5650 5649 5648 5647 5646 5645 5644 5642 5641 5640 5638 5637 5636 5634
5546 5548 5550 5552 5554 5558 5564 5571 5576 5579 5582 5587 5592 5597 5600 5603 5605 5607 5610 5613 5616 5618 5620 5622 5625 5628 5632 5636 5640 5642 5644 5647 5647 5647 5648 5649 5650 5652 5654 5655 5655 5656 5656 5656 5656 5657 5657 5658 5658 5658 5658 5658 5657 5657 5657 5656 5656 5656 5655 5654 5654 5653 5653 5652 5652 5651 5650 5649 5648 5647 5646 5645 5644 5643 5642 5641 5640 5639 5638 5637 5636 5634 5633 5632 5631 5629
5542 5544 5544 5547 5550 5555 5562 5568 5571 5573 5577 5582 5587 5591 5594 5596 5599 5601 5602 5605 5609 5612 5613 5616 5619 5622 5626 5629 5632 5635 5638 5639 5639 5639 5641 5642 5644 5647 5648 5648 5648 5649 5650 5650 5650 5651 5651 5652 5652 5652 5651 5651 5651 5651 5650 5650 5650 5649 5649 5648 5648 5647 5646 5646 5645 5644 5643 5642 5641 5640 5640 5639 5637 5637 5636 5635 5634 5633 5632 5631 5630 5628 5627 5626 5625 5623
5535 5536 5539 5544 5547 5550 5556 5561 5564 5568 5573 5577 5580 5585 5587 5589 5591 5593 5594 5597 5603 5607 5610 5612 5615 5618 5620 5622 5624 5627 5629 5630 5632 5634 5636 5637 5639 5640 5640 5640 5642 5642 5643 5644 5644 5644 5645 5645 5645 5645 5645 5644 5644 5644 5643 5643 5643 5643 5642 5642 5641 5641 5640 5639 5638 5637 5636 5635 5635 5634 5633 5632 5631 5630 5629 5628 5627 5626 5625 5624 5623 5622 5621 5620 5619 5617
5528 5532 5537 5539 5540 5547 5555 5561 5563 5566 5569 5572 5574 5576 5579 5581 5583 5587 5590 5594 5598 5603 5606 5608 5610 5612 5613 5615 5616 5618 5620 5623 5626 5629 5630 5631 5632 5632 5632 5633 5635 5636 5637 5637 5637 5638 5638 5638 5638 5638 5638 5637 5637 5637 5636 5636 5636 5636 5636 5635 5635 5634 5633 5632 5632 5631 5630 5629 5628 5627 5627 5626 5625 5624 5623 5621 5620 5619 5618 5617 5616 5615 5613 5612 5611 5610
5528 5533 5535 5535 5540 5549 5555 5557 5559 5561 5565 5568 5570 5571 5574 5577 5581 5585 5589 5592 5594 5597 5600 5602 5604 5605 5607 5608 5610 5612 5614 5617 5620 5621 5622 5623 5623 5624 5625 5627 5628 5630 5630 5631 5631 5632 5632 5631 5631 5630 5630 5630 5630 5629 5629 5629 5629 5629 5628 5628 5628 5627 5626 5626 5625 5624 5623 5622 5621 5620 5620 5619 5618 5617 5616 5615 5614 5612 5611 5610 5608 5607 5606 5604 5603 5602